Weather History for KFAM - October, 2013

Change the Weather History Date:

Thursday, October 10, 2013

  Actual Average (KCGI) Record (KCGI)
Temperature  
Mean Temperature 64 °F 60 °F  
Max Temperature 77 °F 72 °F 88 °F (2010)
Min Temperature 50 °F 47 °F 26 °F (2000)
Degree Days  
Heating Degree Days 2 7  
Month to date heating degree days 58  
Since 1 July heating degree days 107  
Cooling Degree Days 0 1  
Month to date cooling degree days 17  
Year to date cooling degree days 1439  
Growing Degree Days 14 (Base 50)    
Moisture  
Dew Point 54 °F    
Average Humidity 79    
Maximum Humidity 100    
Minimum Humidity 50    
Precipitation  
Precipitation 0.00 in 0.11 in 0.79 in (1969)
Month to date precipitation 1.16  
Year to date precipitation 35.49  
Sea Level Pressure  
Sea Level Pressure 30.12 in    
Wind  
Wind Speed 2 mph (SSE)    
Max Wind Speed 13 mph    
Max Gust Speed 16 mph    
Visibility 7 miles    
Events      
T = Trace of Precipitation, MM = Missing Value Source: NWS Daily Summary

Daily Weather History Graph

Daily Weather History Graph

Search for Another Location

Airport or City:

Trip Planner

Search our weather history database for the weather conditions in past years. The results will help you decide how hot, cold, wet, or windy it might be!

Date:

Astronomy

Oct. 10, 2013 Rise Set
Actual Time 7:05 AM CDT 6:30 PM CDT
Civil Twilight 6:39 AM CDT 6:57 PM CDT
Nautical Twilight 6:08 AM CDT 7:27 PM CDT
Astronomical Twilight 5:38 AM CDT 7:57 PM CDT
Moon 12:53 PM CDT (10/10) 11:12 PM CDT (10/10)
Length of Visible Light 12h 17m
Length of Day
11h 25m
Waxing Crescent, 36% of the Moon is Illuminated
Oct 10
Waxing Crescent
Oct 11
First Quarter
Oct 18
Full
Oct 26
Last Quarter
Nov 3
New

Hourly Weather History & Observations

Time (CDT) Temp. Dew Point Humidity Pressure Visibility Wind Dir Wind Speed Gust Speed Precip Events Conditions
12:15 AM 53.6 °F 51.8 °F 94% 30.14 in 5.0 mi Calm Calm - N/A   Partly Cloudy
12:35 AM 53.6 °F 51.8 °F 94% 30.14 in 7.0 mi Calm Calm - N/A   Clear
12:55 AM 51.8 °F 50.0 °F 94% 30.14 in 0.5 mi Calm Calm - N/A   Unknown
1:15 AM 51.8 °F 51.8 °F 100% 30.14 in 1.2 mi Calm Calm - N/A   Clear
1:35 AM 51.8 °F 50.0 °F 94% 30.14 in 10.0 mi Calm Calm - N/A   Partly Cloudy
1:55 AM 51.8 °F 50.0 °F 94% 30.13 in 5.0 mi Calm Calm - N/A   Clear
2:15 AM 51.8 °F 48.2 °F 88% 30.14 in 7.0 mi Calm Calm - N/A   Clear
2:35 AM 51.8 °F 48.2 °F 88% 30.14 in 9.0 mi Calm Calm - N/A   Mostly Cloudy
2:55 AM 51.8 °F 50.0 °F 94% 30.14 in 10.0 mi Calm Calm - N/A   Scattered Clouds
3:15 AM 51.8 °F 48.2 °F 88% 30.14 in 10.0 mi Calm Calm - N/A   Clear
3:35 AM 51.8 °F 48.2 °F 88% 30.14 in 10.0 mi Calm Calm - N/A   Clear
3:55 AM 51.8 °F 48.2 °F 88% 30.14 in 10.0 mi Calm Calm - N/A   Partly Cloudy
4:15 AM 51.8 °F 48.2 °F 88% 30.14 in 7.0 mi Calm Calm - N/A   Clear
4:35 AM 50.0 °F 46.4 °F 87% 30.14 in 4.0 mi Calm Calm - N/A   Clear
4:55 AM 50.0 °F 46.4 °F 87% 30.15 in 5.0 mi Calm Calm - N/A   Clear
5:15 AM 50.0 °F 48.2 °F 94% 30.15 in 3.0 mi Calm Calm - N/A   Clear
5:35 AM 50.0 °F 48.2 °F 94% 30.15 in 7.0 mi Calm Calm - N/A   Scattered Clouds
5:55 AM 50.0 °F 48.2 °F 94% 30.15 in 7.0 mi Calm Calm - N/A   Overcast
6:15 AM 50.0 °F 48.2 °F 94% 30.16 in 7.0 mi Calm Calm - N/A   Overcast
6:35 AM 50.0 °F 48.2 °F 94% 30.15 in 0.2 mi Calm Calm - N/A   Overcast
6:55 AM 50.0 °F 48.2 °F 94% 30.15 in 0.2 mi Calm Calm - N/A   Overcast
7:15 AM 50.0 °F 48.2 °F 94% 30.16 in 0.2 mi Calm Calm - N/A   Overcast
7:35 AM 51.8 °F 48.2 °F 88% 30.16 in 0.2 mi Calm Calm - N/A   Overcast
7:55 AM 51.8 °F 50.0 °F 94% 30.17 in 0.2 mi Calm Calm - N/A   Overcast
8:15 AM 51.8 °F 51.8 °F 100% 30.17 in 0.2 mi Calm Calm - N/A   Overcast
8:35 AM 53.6 °F 51.8 °F 94% 30.17 in 0.2 mi Calm Calm - N/A   Overcast
8:55 AM 55.4 °F 53.6 °F 94% 30.17 in 0.2 mi Calm Calm - N/A   Overcast
9:15 AM 55.4 °F 53.6 °F 94% 30.18 in 0.2 mi Calm Calm - N/A   Overcast
9:35 AM 57.2 °F 57.2 °F 100% 30.18 in 0.2 mi Calm Calm - N/A   Overcast
9:55 AM 59.0 °F 57.2 °F 94% 30.19 in 4.0 mi Calm Calm - N/A   Overcast
10:15 AM 60.8 °F 60.8 °F 100% 30.19 in 10.0 mi Calm Calm - N/A   Partly Cloudy
10:35 AM 64.4 °F 60.8 °F 88% 30.19 in 10.0 mi Calm Calm - N/A   Clear
10:55 AM 66.2 °F 62.6 °F 88% 30.19 in 10.0 mi South 5.8 mph - N/A   Partly Cloudy
11:15 AM 66.2 °F 60.8 °F 83% 30.19 in 10.0 mi South 6.9 mph - N/A   Partly Cloudy
11:35 AM 71.6 °F 60.8 °F 69% 30.18 in 10.0 mi South 6.9 mph - N/A   Scattered Clouds
11:55 AM 73.4 °F 60.8 °F 65% 30.17 in 10.0 mi SE 9.2 mph - N/A   Partly Cloudy
12:15 PM 73.4 °F 59.0 °F 61% 30.16 in 10.0 mi SSE 10.4 mph - N/A   Partly Cloudy
12:35 PM 73.4 °F 57.2 °F 57% 30.15 in 10.0 mi SSE 11.5 mph - N/A   Clear
12:55 PM 75.2 °F 57.2 °F 53% 30.14 in 10.0 mi SSE 9.2 mph - N/A   Scattered Clouds
1:15 PM 75.2 °F 57.2 °F 53% 30.13 in 10.0 mi South 10.4 mph - N/A   Partly Cloudy
1:35 PM 75.2 °F 57.2 °F 53% 30.13 in 10.0 mi South 5.8 mph - N/A   Scattered Clouds
1:55 PM 75.2 °F 57.2 °F 53% 30.12 in 10.0 mi SE 8.1 mph - N/A   Scattered Clouds
2:15 PM 73.4 °F 57.2 °F 57% 30.11 in 10.0 mi SE 5.8 mph - N/A   Mostly Cloudy
2:35 PM 77.0 °F 57.2 °F 50% 30.11 in 10.0 mi South 11.5 mph 16.1 mph N/A   Mostly Cloudy
2:55 PM 77.0 °F 57.2 °F 50% 30.11 in 10.0 mi South 9.2 mph - N/A   Scattered Clouds
3:15 PM 75.2 °F 57.2 °F 53% 30.10 in 10.0 mi South 6.9 mph - N/A   Clear
3:35 PM 73.4 °F 55.4 °F 53% 30.09 in 10.0 mi SSE 12.7 mph 16.1 mph N/A   Partly Cloudy
3:55 PM 73.4 °F 57.2 °F 57% 30.08 in 10.0 mi SSE 6.9 mph - N/A   Clear
4:15 PM 75.2 °F 57.2 °F 53% 30.08 in 10.0 mi SSE 9.2 mph - N/A   Clear
4:35 PM 73.4 °F 57.2 °F 57% 30.07 in 10.0 mi SSE 10.4 mph - N/A   Partly Cloudy
4:55 PM 75.2 °F 55.4 °F 50% 30.07 in 10.0 mi SSE 11.5 mph - N/A   Partly Cloudy
5:15 PM 73.4 °F 55.4 °F 53% 30.07 in 10.0 mi South 10.4 mph - N/A   Clear
5:35 PM 73.4 °F 55.4 °F 53% 30.07 in 10.0 mi South 11.5 mph - N/A   Clear
5:55 PM 71.6 °F 55.4 °F 57% 30.07 in 10.0 mi South 9.2 mph - N/A   Clear
6:15 PM 69.8 °F 55.4 °F 60% 30.07 in 10.0 mi South 5.8 mph - N/A   Clear
6:35 PM 66.2 °F 55.4 °F 68% 30.06 in 10.0 mi South 4.6 mph - N/A   Clear
6:55 PM 66.2 °F 53.6 °F 64% 30.06 in 10.0 mi Calm Calm - N/A   Clear
7:15 PM 66.2 °F 55.4 °F 68% 30.06 in 10.0 mi Calm Calm - N/A   Clear
7:35 PM 64.4 °F 55.4 °F 73% 30.06 in 10.0 mi Calm Calm - N/A   Clear
7:55 PM 62.6 °F 55.4 °F 77% 30.06 in 10.0 mi South 3.5 mph - N/A   Clear
8:15 PM 62.6 °F 55.4 °F 77% 30.06 in 10.0 mi Calm Calm - N/A   Clear
8:35 PM 60.8 °F 55.4 °F 82% 30.06 in 10.0 mi Calm Calm - N/A   Clear
8:55 PM 60.8 °F 55.4 °F 82% 30.06 in 10.0 mi Calm Calm - N/A   Clear
9:15 PM 60.8 °F 55.4 °F 82% 30.06 in 10.0 mi Calm Calm - N/A   Clear
9:35 PM 59.0 °F 53.6 °F 82% 30.06 in 10.0 mi Calm Calm - N/A   Clear
9:55 PM 59.0 °F 55.4 °F 88% 30.06 in 10.0 mi Calm Calm - N/A   Clear
10:15 PM 57.2 °F 53.6 °F 88% 30.05 in 10.0 mi Calm Calm - N/A   Clear
10:35 PM 55.4 °F 53.6 °F 94% 30.05 in 7.0 mi Calm Calm - N/A   Clear
10:55 PM 55.4 °F 53.6 °F 94% 30.05 in 1.2 mi Calm Calm - N/A   Clear
11:15 PM 55.4 °F 53.6 °F 94% 30.05 in 10.0 mi Calm Calm - N/A   Clear
11:35 PM 55.4 °F 53.6 °F 94% 30.05 in 10.0 mi Calm Calm - N/A   Clear
11:55 PM 53.6 °F 50.0 °F 88% 30.05 in 0.8 mi Calm Calm - N/A   Unknown